Regional Weather Roundup
Issued by NWS

Home | Current Version | Previous Version | Graphics & Text | Print | Product List | Glossary On
Versions: 1 2 3 4 5 6 7 8 9 10 11 12 13 14 15 16 17 18 19 20 21 22 23 24 25 26 27 28 29 30 31 32 33 34 35 36 37 38 39 40 41 42 43 44 45 46 47 48 49 50
000
ASUS43 KIND 200059
RWRIN

WEATHER ROUNDUP FOR INDIANA
NATIONAL WEATHER SERVICE INDIANAPOLIS IN
900 PM EDT THU APR 19 2018

NOTE: "FAIR" INDICATES FEW OR NO CLOUDS BELOW 12,000 FEET WITH NO
SIGNIFICANT WEATHER AND/OR OBSTRUCTIONS TO VISIBILITY.

* - STATION DOES NOT REPORT WEATHER SUCH AS PRECIPITATION OR FOG.

+ - STATION NOT QUALITY CONTROLLED BY THE NATIONAL WEATHER SERVICE.
    USE DATA WITH CAUTION...ESPECIALLY DEWPOINT AND RELATIVE
    HUMIDITY OBSERVATIONS.

INZ001>003-010>013-019-020-200200-
NORTHWEST INDIANA

CITY           SKY/WX    TMP DP  RH WIND       PRES   REMARKS
KNOX *+        FAIR      36  19  51 N5        30.40S WCI  32
MONTICELLO +   FAIR      40  16  37 N10G16    30.39R WCI  34
RENSSELAER +   FAIR      39  14  35 N10       30.40R WCI  32

$$

LMZ046-743>745-200200-
SOUTHERN LAKE MICHIGAN

STATION/POSITION TIME  TEMP    WIND        PRES    WAVE
                       AIR SEA DIR/SP/G            HT
                 (UTC) (F)     (DEG/KT/KT) (MB)    (FT)
BURNS HARBOR     0040   40      40/  6/  8 1030.1S
MICHIGAN CITY    0030   40     340/  5/  5   N/A

$$

INZ004-005-014>016-021>024-200200-
NORTH CENTRAL INDIANA

CITY           SKY/WX    TMP DP  RH WIND       PRES   REMARKS
ELKHART        FAIR      39  18  41 NW14G21   30.37R WCI  31
GOSHEN         FAIR      39  23  52 NW13      30.36R WCI  31
PERU/GRISSOM   FAIR      42  23  47 NW10      30.35R
ROCHESTER +    FAIR      41  21  45 N14       30.38R
SOUTH BEND     FAIR      38  18  44 N14       30.39R WCI  30
WARSAW +       FAIR      37  27  65 NW10      30.36R WCI  30

$$

INZ006>009-017-018-025>027-200200-
NORTHEAST INDIANA

CITY           SKY/WX    TMP DP  RH WIND       PRES   REMARKS
ANGOLA *+      FAIR      41  28  60 NW13G18   30.32R
FORT WAYNE     FAIR      43  31  62 NW10      30.33R
KENDALLVILLE + FAIR      40  24  52 NW7G17    30.33R WCI  35

$$

INZ028-029-035-036-043>045-051>053-200200-
WEST CENTRAL INDIANA

CITY           SKY/WX    TMP DP  RH WIND       PRES   REMARKS
CRAWFORDSVL +  FAIR      43  18  36 N9        30.37R
GREENCASTLE +  FAIR      46  19  34 N10       30.37R
LAFAYETTE      FAIR      42  15  33 N9        30.39R
TERRE HAUTE    FAIR      50  26  39 N7        30.37R

$$

INZ030>032-037>040-046>048-054>057-064-065-200200-
CENTRAL INDIANA

CITY           SKY/WX    TMP DP  RH WIND       PRES   REMARKS
COLUMBUS       CLEAR     48 N/A N/A NW7       30.33R
INDIANAPOLIS   FAIR      47  24  40 N14       30.35R
-EAGLE CREEK   FAIR      48  24  39 NW12      30.34R
KOKOMO +       FAIR      42  25  50 NW12      30.36R
MT COMFORT *+  FAIR      45  30  57 NW13      30.34R
SHELBYVILLE    FAIR      48  26  42 NW12      30.32R
ZIONSVILLE +   FAIR      44  26  49 NW10      30.36R

$$

INZ033-034-041-042-049-050-058-059-200200-
EAST CENTRAL INDIANA

CITY           SKY/WX    TMP DP  RH WIND       PRES   REMARKS
MUNCIE         FAIR      47  26  44 NW15      30.32R
RICHMOND +     FAIR      45  28  53 NW12      30.29R

$$

INZ060-061-067>069-081>083-085>088-200200-
SOUTHWEST INDIANA

CITY           SKY/WX    TMP DP  RH WIND       PRES   REMARKS
EVANSVILLE     FAIR      50  31  48 NW3       30.38R
HUNTINGBURG +  FAIR      48  34  58 NW6       30.36R

$$

INZ062-063-066-070>080-084-089>092-200200-
SOUTH CENTRAL AND SOUTHEAST INDIANA

CITY           SKY/WX    TMP DP  RH WIND       PRES   REMARKS
BLOOMINGTON    FAIR      49  27  42 N3        30.34R
FRENCH LICK *+ FAIR      50  18  27 NW3       30.34R
SEYMOUR +      FAIR      50  30  46 NW7       30.33R

$$




USA.gov is the U.S. government's official web portal to all federal, state and local government web resources and services.